Retour au catalogue

CZ-6A DEB

ActifPO
NORAD 54308·DEBRIS·🇨🇳 China

Lancé Nov 11, 2022 depuis Taiyuan Satellite Launch Center

Loading…

Prochains Passages (prochaines 24 heures)

TLE

FraisSource: Space-Track

Époque: Sep 14, 2026, 11:38 UTC

1 54308U 22151BB  26257.48483865  .00089814  00000-0  40819-2 0  9993
2 54308  98.6288 352.9837 0024980 291.4664  68.3903 15.20092355204417

Suivez CZ-6A DEB en temps réel avec AllMySat

Download on the App Store